Tracking 19638 objects as of 21-Apr-2019
HD Live streaming from Space Station
objects crossing your sky now

SCOUT B DEB

Track SCOUT B DEB now!
10-day predictions


NORAD ID: 28803
Int'l Code: 1965-063N
Perigee: 1,123.7 km
Apogee: 2,362.6 km
Inclination: 69.2 °
Period: 121.2 minutes
Semi major axis: 8114 km
RCS: 0.014 m2 (small)
Launch date: August 10, 1965
Source: United States (US)
Launch site: WALLOPS ISLAND (WLPIS)

Note: This is SATELLITE DEBRIS
aabbcc
Your satellite tracking list
Your tracking list is empty




NASA's NSSDC Master Catalog

Two Line Element Set (TLE):
1 28803U 65063N   19083.30758369  .00000440  00000-0  30331-2 0  9993
2 28803  69.2190  54.6078 0763394   6.2050  55.1522 11.87781498611456
Source of the keplerian elements: AFSPC